[[{"header":{"parameterUnit":"m.s-1","parameterCategory":1,"la1":30.2991,"la2":30.254,"lo1":-89.0895,"lo2":-89.0444,"dy":0.0017,"dx":0.0017,"nx":28,"ny":28,"refTime":"2024-10-05T21:00:00:Z","depth":0,"parameterNumber":2,"parameterNumberName":"U-component_of_WINDS"},"data":[0,0,0,0,0,0,0,0,0,0,0,0,0,0,0,0,0,0,0,0,0,0,0,0,0,0,0,0,0,0,0,0,0,0,0,0,0,0,0,0,0,0,0,0,0,0,0,0,0,0,0,0,0,0,0,0,0,0,-2.5713,-2.5714,0,-2.5754,-2.5754,-2.5755,-2.5707,-2.5705,-2.5703,-2.5702,-2.5744,-2.5747,-2.575,0,0,0,0,0,0,0,0,0,0,0,0,0,-2.5596,-2.5599,-2.5713,-2.5714,-2.5714,-2.5754,-2.5754,-2.5755,-2.5707,-2.5705,-2.5703,-2.5701,-2.5743,-2.5747,-2.575,0,0,0,0,0,0,0,0,0,0,0,0,0,-2.5643,-2.56,-2.5713,-2.5695,-2.5694,-2.5754,-2.5754,-2.5755,-2.5708,-2.5705,-2.5702,-2.57,-2.5742,-2.5746,-2.575,-2.583,0,0,-2.5763,-2.5765,0,0,0,0,0,0,0,0,-2.5641,-2.5647,-2.5697,-2.5697,-2.5695,-2.5722,-2.5729,-2.578,-2.5708,-2.5703,-2.5702,-2.5698,-2.5739,-2.5744,-2.5757,-2.5832,-2.5834,-2.5764,-2.5766,-2.5768,-2.5769,0,0,0,0,0,0,0,-2.5637,-2.5645,-2.5729,-2.5698,-2.5697,-2.5686,-2.5689,-2.5738,-2.5735,-2.5703,-2.5699,-2.5705,-2.5738,-2.5753,-2.5758,-2.5834,-2.5764,-2.5767,-2.577,-2.5772,-2.5979,-2.5982,0,0,0,0,0,0,-2.5636,-2.5643,-2.5728,-2.5731,-2.5661,-2.569,-2.5694,-2.5717,-2.5735,-2.5735,-2.5707,-2.5702,-2.5747,-2.5753,-2.5759,-2.5855,-2.5768,-2.5772,-2.5774,-2.5976,-2.5979,-2.5983,0,0,0,0,0,0,-2.5634,-2.5644,-2.5726,-2.5686,-2.5696,-2.5695,-2.572,-2.5719,-2.5734,-2.5738,-2.5737,-2.5723,-2.5745,-2.5753,-2.5813,-2.5856,-2.5774,-2.5778,-2.5972,-2.5977,-2.5981,-2.6047,0,0,0,0,0,0,-2.5631,-2.5643,-2.5673,-2.5687,-2.5698,-2.578,-2.5723,-2.5721,-2.5741,-2.5735,-2.5753,-2.5753,-2.5744,-2.5807,-2.5817,-2.586,-2.5781,-2.5969,-2.5974,-2.598,-2.6041,-2.6053,-2.6064,0,0,0,0,0,-2.5627,-2.569,-2.5675,-2.5686,-2.5735,-2.5782,-2.5788,-2.5776,-2.5744,-2.5775,-2.5778,-2.5752,-2.5849,-2.5814,-2.5825,-2.587,-2.5966,-2.5973,-2.5979,-2.6036,-2.6051,-2.6063,0,0,0,0,0,0,-2.5682,-2.5692,-2.5675,-2.5745,-2.5763,-2.5774,-2.5812,-2.5792,-2.582,-2.5814,-2.5798,-2.5802,-2.5867,-2.5873,-2.5834,-2.5948,-2.5902,-2.5912,-2.5942,-2.5956,-2.5967,-2.5965,-2.5784,0,0,0,0,0,-2.5702,-2.5739,-2.5745,-2.5806,-2.5816,-2.5813,-2.5833,-2.5822,-2.584,-2.5848,-2.5855,-2.5874,-2.5909,-2.5932,-2.5965,-2.6041,-2.6045,-2.6078,-2.6089,-2.6098,-2.6107,-2.615,-2.6165,-2.6005,-2.6005,-2.6005,0,0,-2.5744,-2.5754,-2.5778,-2.5818,-2.5831,-2.587,-2.582,-2.5863,-2.5892,-2.5854,-2.5912,-2.5918,-2.5938,-2.6008,-2.6039,-2.6016,-2.6152,-2.6107,-2.6114,-2.6118,-2.6158,-2.6174,-2.6187,-2.6009,-2.6008,-2.6008,0,0,-2.5842,-2.5852,-2.5905,-2.5919,-2.5939,-2.5937,-2.5949,-2.5963,-2.5966,-2.6023,-2.5996,-2.6031,-2.6091,-2.6107,-2.6123,-2.6228,-2.6207,-2.6239,-2.6299,-2.6341,-2.6354,-2.6365,-2.6404,-2.6418,-2.6247,-2.6248,-2.6248,0,-2.5892,-2.595,-2.5935,-2.5981,-2.6,-2.5967,-2.6021,-2.6035,-2.6065,-2.6079,-2.6053,-2.6128,-2.614,-2.6213,-2.6239,-2.6252,-2.6268,-2.6238,-2.6353,-2.6364,-2.6374,-2.6412,-2.6426,-2.6251,-2.6251,-2.6251,-2.625,0,-2.6012,-2.6053,-2.6093,-2.6123,-2.6146,-2.6196,-2.6189,-2.6214,-2.6202,-2.6202,-2.6262,-2.6274,-2.6309,-2.6325,-2.6313,-2.6398,-2.6383,-2.6355,-2.6309,-2.6394,-2.6429,-2.6443,-2.6257,-2.6256,-2.6255,-2.6254,0,0,-2.6147,-2.6168,-2.6183,-2.6197,-2.6217,-2.6249,-2.6297,-2.6331,-2.6354,-2.6376,-2.6417,-2.6469,-2.6444,-2.6462,-2.6451,-2.6488,-2.6573,-2.6455,-2.6456,-2.6479,-2.667,-2.6692,-2.6709,-2.6558,-2.656,-2.6562,-2.6669,0,-2.6247,-2.6331,-2.6319,-2.6401,-2.6439,-2.6409,-2.6451,-2.6469,-2.647,-2.6504,-2.6505,-2.6543,-2.6505,-2.6517,-2.6551,-2.6555,-2.6611,-2.6547,-2.6598,-2.66,-2.6596,-2.6727,-2.6751,-2.6851,-2.6682,-2.6684,-2.6686,0,-2.6375,-2.6401,-2.6487,-2.6502,-2.6518,-2.6557,-2.6588,-2.6619,-2.6639,-2.6637,-2.6658,-2.6641,-2.6691,-2.6643,-2.6712,-2.6669,-2.6689,-2.6694,-2.6697,-2.6704,-2.665,-2.6739,-2.6882,-2.6898,-2.6707,-2.6705,-2.6704,0,-2.6467,-2.6524,-2.6584,-2.6596,-2.6615,-2.6643,-2.6652,-2.6669,-2.669,-2.6717,-2.6732,-2.6764,-2.6783,-2.6808,-2.6801,-2.6766,-2.6873,-2.6823,-2.6875,-2.6876,-2.6901,-2.69,-2.7052,-2.691,-2.691,-2.691,-2.6909,0,-2.6581,-2.6636,-2.6626,-2.6662,-2.6723,-2.6708,-2.6768,-2.6774,-2.6789,-2.6827,-2.6801,-2.6838,-2.6825,-2.686,-2.6855,-2.6915,-2.6922,-2.6924,-2.6922,-2.6928,-2.6928,-2.6942,-2.6936,-2.6913,-2.6913,-2.6912,-2.6911,0,-2.6696,-2.6691,-2.6754,-2.6767,-2.6771,-2.6815,-2.6826,-2.6861,-2.686,-2.6909,-2.6919,-2.6919,-2.696,-2.6955,-2.7,-2.6996,-2.7072,-2.706,-2.7065,-2.7064,-2.7117,-2.7113,-2.7285,-2.7308,-2.7149,-2.7151,-2.7152,0,-2.677,-2.6811,-2.6829,-2.6852,-2.6863,-2.6901,-2.6924,-2.6911,-2.6935,-2.6961,-2.6993,-2.7032,-2.7062,-2.7129,-2.7134,-2.7169,-2.716,-2.7217,-2.7165,-2.717,-2.7163,-2.7162,-2.7167,-2.7229,-2.723,-2.7232,-2.7233,0,-2.6904,-2.6899,-2.6932,-2.6965,-2.6992,-2.7017,-2.7039,-2.706,-2.705,-2.7078,-2.712,-2.7143,-2.719,-2.723,-2.7263,-2.7273,-2.7253,-2.7249,-2.7264,-2.7271,-2.7273,-2.7275,-2.7096,-2.7246,-2.7245,-2.7244,-2.7243,-2.7242,-2.7002,-2.7038,-2.7056,-2.7094,-2.7109,-2.7131,-2.7165,-2.7169,-2.7203,-2.724,-2.723,-2.7278,-2.7298,-2.734,-2.7354,-2.7391,-2.737,-2.739,-2.7396,-2.7402,-2.7409,-2.7265,-2.7397,-2.7397,-2.7396,-2.7396,-2.7396,0,-2.7136,-2.7146,-2.7181,-2.7214,-2.7244,-2.722,-2.7244,-2.7271,-2.7313,-2.7333,-2.7363,-2.7412,-2.745,-2.7458,-2.7494,-2.7523,-2.7515,-2.7534,-2.7533,-2.7536,-2.7425,-2.741,-2.754,-2.754,-2.754,-2.754,-2.754,-2.754,-2.721,-2.727,-2.7268,-2.7336,-2.7345,-2.7392,-2.7408,-2.7428,-2.7444,-2.75,-2.7531,-2.7535,-2.7551,-2.7588,-2.7623,-2.7624,-2.764,-2.7663,-2.7661,-2.7558,-2.7543,-2.753,-2.7516,-2.7666,-2.7666,-2.7769,-2.777,-2.7771]},{"header":{"parameterUnit":"m.s-1","parameterCategory":1,"la1":30.2991,"la2":30.254,"lo1":-89.0895,"lo2":-89.0444,"dy":0.0017,"dx":0.0017,"nx":28,"ny":28,"refTime":"2024-10-05T21:00:00:Z","depth":0,"parameterNumber":3,"parameterNumberName":"V-component_of_WINDS"},"data":[0,0,0,0,0,0,0,0,0,0,0,0,0,0,0,0,0,0,0,0,0,0,0,0,0,0,0,0,0,0,0,0,0,0,0,0,0,0,0,0,0,0,0,0,0,0,0,0,0,0,0,0,0,0,0,0,0,0,-3.3161,-3.316,0,-3.3144,-3.3143,-3.3143,-3.3081,-3.3079,-3.3078,-3.3077,-3.3061,-3.3061,-3.3062,0,0,0,0,0,0,0,0,0,0,0,0,0,-3.314,-3.3141,-3.3161,-3.316,-3.316,-3.3144,-3.3143,-3.3143,-3.3081,-3.3079,-3.3078,-3.3076,-3.306,-3.3061,-3.3062,0,0,0,0,0,0,0,0,0,0,0,0,0,-3.3139,-3.3141,-3.3161,-3.3127,-3.3124,-3.3144,-3.3143,-3.3143,-3.3082,-3.3079,-3.3077,-3.3075,-3.306,-3.3061,-3.3062,-3.3113,0,0,-3.3067,-3.3067,0,0,0,0,0,0,0,0,-3.3139,-3.314,-3.3132,-3.313,-3.3126,-3.3112,-3.313,-3.3133,-3.3082,-3.3098,-3.3077,-3.3074,-3.308,-3.3079,-3.3081,-3.3113,-3.3112,-3.3067,-3.3068,-3.3068,-3.3068,0,0,0,0,0,0,0,-3.3139,-3.314,-3.3154,-3.3132,-3.3128,-3.3113,-3.3111,-3.313,-3.3101,-3.3096,-3.3092,-3.309,-3.3077,-3.3079,-3.308,-3.3112,-3.3067,-3.3068,-3.3069,-3.3069,-3.3185,-3.3187,0,0,0,0,0,0,-3.3144,-3.3141,-3.3154,-3.3153,-3.3127,-3.3116,-3.3113,-3.3119,-3.31,-3.3096,-3.3092,-3.3088,-3.3078,-3.3078,-3.3079,-3.3138,-3.3068,-3.3069,-3.307,-3.3183,-3.3185,-3.3188,0,0,0,0,0,0,-3.3144,-3.3146,-3.3155,-3.3146,-3.3146,-3.3118,-3.3126,-3.312,-3.3122,-3.3097,-3.3092,-3.31,-3.3077,-3.3077,-3.3105,-3.3136,-3.307,-3.3071,-3.318,-3.3183,-3.3187,-3.3256,0,0,0,0,0,0,-3.3144,-3.3146,-3.3165,-3.3147,-3.3146,-3.3182,-3.3127,-3.3121,-3.3124,-3.3118,-3.3103,-3.3099,-3.3075,-3.3104,-3.3107,-3.3137,-3.3072,-3.3177,-3.3182,-3.3186,-3.325,-3.3261,-3.327,0,0,0,0,0,-3.3143,-3.3185,-3.3166,-3.3168,-3.3169,-3.3183,-3.3183,-3.3155,-3.3127,-3.3146,-3.313,-3.3099,-3.3132,-3.3107,-3.311,-3.3141,-3.3175,-3.318,-3.3185,-3.3246,-3.3259,-3.327,0,0,0,0,0,0,-3.3208,-3.3182,-3.3161,-3.3198,-3.3194,-3.3173,-3.3196,-3.3169,-3.3173,-3.3167,-3.3132,-3.3129,-3.3163,-3.3154,-3.3127,-3.3189,-3.3148,-3.3154,-3.3194,-3.3206,-3.3215,-3.3217,-3.3073,0,0,0,0,0,-3.3227,-3.324,-3.3217,-3.3252,-3.3251,-3.3224,-3.3229,-3.3207,-3.3201,-3.3199,-3.3185,-3.3181,-3.319,-3.3197,-3.3205,-3.3249,-3.3245,-3.3271,-3.3281,-3.3289,-3.3295,-3.3318,-3.333,-3.3205,-3.3205,-3.3205,0,0,-3.3266,-3.3253,-3.3264,-3.3265,-3.3259,-3.3274,-3.3223,-3.324,-3.3251,-3.3202,-3.3228,-3.3218,-3.321,-3.3247,-3.3262,-3.3241,-3.3329,-3.3296,-3.3303,-3.3304,-3.3325,-3.3337,-3.3347,-3.3208,-3.3207,-3.3207,0,0,-3.3345,-3.3336,-3.3365,-3.3359,-3.3351,-3.3332,-3.3339,-3.3323,-3.3314,-3.3339,-3.3303,-3.3315,-3.3332,-3.3328,-3.3329,-3.3406,-3.3378,-3.341,-3.3461,-3.3484,-3.3494,-3.3502,-3.3531,-3.3541,-3.3415,-3.3415,-3.3416,0,-3.3394,-3.3415,-3.3383,-3.3403,-3.3405,-3.336,-3.3389,-3.3386,-3.338,-3.3383,-3.3359,-3.3379,-3.3371,-3.3407,-3.3425,-3.3427,-3.3434,-3.3411,-3.3495,-3.3503,-3.3511,-3.3537,-3.3548,-3.3419,-3.3419,-3.3419,-3.3418,0,-3.3477,-3.3492,-3.3516,-3.3511,-3.3516,-3.354,-3.3513,-3.3521,-3.3499,-3.3484,-3.351,-3.3499,-3.3503,-3.351,-3.3489,-3.3542,-3.353,-3.3501,-3.3459,-3.3527,-3.3552,-3.3562,-3.3425,-3.3424,-3.3422,-3.3421,0,0,-3.3597,-3.3574,-3.3583,-3.3581,-3.3567,-3.3579,-3.3601,-3.3605,-3.3614,-3.3611,-3.363,-3.3645,-3.3618,-3.3619,-3.3597,-3.3617,-3.368,-3.3586,-3.3585,-3.3604,-3.3739,-3.3762,-3.3774,-3.3661,-3.3663,-3.3664,-3.374,0,-3.3672,-3.3709,-3.3681,-3.3724,-3.3738,-3.3695,-3.3715,-3.371,-3.3696,-3.3706,-3.369,-3.3702,-3.3666,-3.3666,-3.3684,-3.3669,-3.3707,-3.3663,-3.3679,-3.368,-3.3683,-3.3787,-3.381,-3.3883,-3.375,-3.3751,-3.3752,0,-3.3765,-3.3767,-3.3811,-3.3795,-3.3799,-3.3818,-3.3819,-3.3829,-3.3822,-3.381,-3.3811,-3.3784,-3.3806,-3.3764,-3.3794,-3.3765,-3.377,-3.3763,-3.3765,-3.3767,-3.3721,-3.3792,-3.3905,-3.3916,-3.3767,-3.3766,-3.3765,0,-3.3849,-3.3862,-3.389,-3.3889,-3.3871,-3.3885,-3.3878,-3.3869,-3.3873,-3.3875,-3.3877,-3.3881,-3.3884,-3.3888,-3.3863,-3.3835,-3.3896,-3.3852,-3.3888,-3.3889,-3.3904,-3.3903,-3.4021,-3.3906,-3.3906,-3.3905,-3.3905,0,-3.3937,-3.3966,-3.3928,-3.3945,-3.3976,-3.3943,-3.3975,-3.3964,-3.3956,-3.3971,-3.3935,-3.3949,-3.3915,-3.3926,-3.3907,-3.3935,-3.3936,-3.3928,-3.3923,-3.3932,-3.3933,-3.3935,-3.393,-3.3908,-3.3908,-3.3907,-3.3906,0,-3.4037,-3.4012,-3.404,-3.402,-3.4016,-3.404,-3.4024,-3.4039,-3.4023,-3.4042,-3.4045,-3.4019,-3.4031,-3.4006,-3.4014,-3.4001,-3.4041,-3.4027,-3.4043,-3.404,-3.4077,-3.4074,-3.4201,-3.4216,-3.4091,-3.4092,-3.4093,0,-3.4095,-3.4116,-3.4098,-3.4105,-3.4101,-3.4113,-3.4117,-3.4085,-3.4091,-3.4085,-3.4102,-3.411,-3.4115,-3.4135,-3.4118,-3.4124,-3.4111,-3.4155,-3.4112,-3.412,-3.4113,-3.4112,-3.4114,-3.4164,-3.4165,-3.4167,-3.4168,0,-3.42,-3.4187,-3.4194,-3.4197,-3.4203,-3.4204,-3.4203,-3.4211,-3.4177,-3.4186,-3.4197,-3.4201,-3.4209,-3.4218,-3.422,-3.4214,-3.4186,-3.4181,-3.419,-3.42,-3.4209,-3.4205,-3.4069,-3.4179,-3.4178,-3.4177,-3.4176,-3.4176,-3.4281,-3.4298,-3.4289,-3.4298,-3.4294,-3.4293,-3.4307,-3.4292,-3.4301,-3.4305,-3.4285,-3.4301,-3.4294,-3.4294,-3.429,-3.4302,-3.4282,-3.4295,-3.4298,-3.4302,-3.4309,-3.4206,-3.4302,-3.4302,-3.4302,-3.4301,-3.4301,0,-3.4386,-3.4378,-3.4387,-3.4385,-3.4393,-3.4365,-3.4362,-3.437,-3.4384,-3.4379,-3.4385,-3.4398,-3.4407,-3.439,-3.4396,-3.4409,-3.4396,-3.4412,-3.4411,-3.441,-3.4325,-3.4318,-3.4422,-3.4422,-3.4422,-3.4422,-3.4422,-3.4422,-3.4442,-3.4469,-3.4455,-3.448,-3.4471,-3.4486,-3.4487,-3.4486,-3.4482,-3.4498,-3.4505,-3.4494,-3.4484,-3.449,-3.4497,-3.4491,-3.4496,-3.4516,-3.4507,-3.4428,-3.4416,-3.4405,-3.4397,-3.4517,-3.4517,-3.459,-3.4591,-3.4592]}]]